• In Deutschland
  • Länderverzeichnis
  • Für 7 Tage
  • Wassertemperatur
  • Satellitenkarten
  • Wetterkarte
  • Widgets
  • user-avatar
    Anmelden

    Stündliche Wetter Darwin

    Heute, 16 August, Mittwoch

    Zeit Temperatur Niederschläge Wind Luftdruck Luftfeuchtigkeit
    00:00 +25°C° 0 mm 2 m/S 758 mmHg 86%
    01:00 +25°C° 0 mm 1 m/S 758 mmHg 86%
    02:00 +24°C° 0 mm 1 m/S 758 mmHg 87%
    03:00 +24°C° 0 mm 1 m/S 758 mmHg 89%
    04:00 +24°C° 0 mm 1 m/S 758 mmHg 90%
    05:00 +24°C° 0 mm 1 m/S 758 mmHg 90%
    06:00 +23°C° 0 mm 1 m/S 758 mmHg 90%
    07:00 +26°C° 0 mm 1 m/S 759 mmHg 78%
    08:00 +29°C° 0 mm 1 m/S 759 mmHg 65%
    09:00 +32°C° 0 mm 1 m/S 759 mmHg 53%
    10:00 +34°C° 0 mm 1 m/S 759 mmHg 47%
    11:00 +35°C° 0 mm 1 m/S 759 mmHg 42%
    12:00 +38°C° 0 mm 2 m/S 758 mmHg 36%
    13:00 +38°C° 0 mm 2 m/S 758 mmHg 37%
    14:00 +37°C° 0 mm 3 m/S 757 mmHg 38%
    15:00 +36°C° 0 mm 3 m/S 757 mmHg 43%
    16:00 +35°C° 0 mm 3 m/S 756 mmHg 47%
    17:00 +33°C° 0 mm 3 m/S 756 mmHg 51%
    18:00 +31°C° 0 mm 3 m/S 756 mmHg 56%
    19:00 +30°C° 0 mm 3 m/S 757 mmHg 62%
    20:00 +29°C° 0 mm 2 m/S 757 mmHg 67%
    21:00 +27°C° 0 mm 2 m/S 758 mmHg 75%
    22:00 +27°C° 0 mm 2 m/S 758 mmHg 77%
    23:00 +26°C° 0 mm 2 m/S 758 mmHg 78%

    Morgen, 17 August, Donnerstag

    Zeit Temperatur Niederschläge Wind Luftdruck Luftfeuchtigkeit
    00:00 +26°C° 0 mm 1 m/S 758 mmHg 79%
    01:00 +26°C° 0 mm 1 m/S 758 mmHg 80%
    02:00 +26°C° 0 mm 1 m/S 758 mmHg 80%
    03:00 +25°C° 0 mm 1 m/S 758 mmHg 81%
    04:00 +25°C° 0 mm 1 m/S 758 mmHg 82%
    05:00 +25°C° 0 mm 1 m/S 758 mmHg 82%
    06:00 +25°C° 0 mm 2 m/S 758 mmHg 82%
    07:00 +27°C° 0 mm 2 m/S 758 mmHg 73%
    08:00 +29°C° 0 mm 2 m/S 759 mmHg 65%
    09:00 +31°C° 0 mm 2 m/S 759 mmHg 56%
    10:00 +35°C° 0 mm 2 m/S 758 mmHg 49%
    11:00 +37°C° 0 mm 2 m/S 758 mmHg 42%
    12:00 +39°C° 0 mm 2 m/S 757 mmHg 35%
    13:00 +39°C° 0 mm 2 m/S 757 mmHg 35%
    14:00 +39°C° 0 mm 3 m/S 756 mmHg 36%
    15:00 +38°C° 0 mm 4 m/S 756 mmHg 37%
    16:00 +36°C° 0 mm 4 m/S 756 mmHg 43%
    17:00 +35°C° 0 mm 3 m/S 756 mmHg 50%
    18:00 +33°C° 0 mm 3 m/S 756 mmHg 56%
    19:00 +31°C° 0 mm 3 m/S 756 mmHg 62%
    20:00 +30°C° 0 mm 2 m/S 757 mmHg 67%
    21:00 +29°C° 0 mm 2 m/S 758 mmHg 73%
    22:00 +28°C° 0 mm 2 m/S 758 mmHg 74%
    23:00 +28°C° 0 mm 2 m/S 758 mmHg 76%

    übermorgen, 18 August, Freitag

    Zeit Temperatur Niederschläge Wind Luftdruck Luftfeuchtigkeit
    00:00 +27°C° 0 mm 1 m/S 759 mmHg 78%
    01:00 +27°C° 0 mm 2 m/S 759 mmHg 80%
    02:00 +27°C° 0 mm 2 m/S 759 mmHg 81%
    03:00 +26°C° 0 mm 2 m/S 758 mmHg 83%
    04:00 +26°C° 0 mm 2 m/S 759 mmHg 84%
    05:00 +26°C° 0 mm 2 m/S 759 mmHg 85%
    06:00 +25°C° 0 mm 2 m/S 759 mmHg 87%
    07:00 +27°C° 0 mm 3 m/S 759 mmHg 75%
    08:00 +29°C° 0 mm 3 m/S 760 mmHg 64%
    09:00 +31°C° 0 mm 3 m/S 760 mmHg 52%
    10:00 +34°C° 0 mm 4 m/S 760 mmHg 43%
    11:00 +36°C° 0 mm 4 m/S 759 mmHg 33%
    12:00 +39°C° 0 mm 5 m/S 759 mmHg 23%
    13:00 +40°C° 0 mm 5 m/S 758 mmHg 23%
    14:00 +40°C° 0 mm 6 m/S 758 mmHg 23%
    15:00 +40°C° 0 mm 6 m/S 757 mmHg 23%
    16:00 +38°C° 0 mm 6 m/S 757 mmHg 31%
    17:00 +35°C° 0 mm 6 m/S 757 mmHg 38%
    18:00 +33°C° 0 mm 5 m/S 757 mmHg 46%
    19:00 +32°C° 0 mm 4 m/S 758 mmHg 52%
    20:00 +30°C° 0 mm 4 m/S 758 mmHg 58%
    21:00 +28°C° 0 mm 3 m/S 759 mmHg 64%
    22:00 +28°C° 0 mm 3 m/S 759 mmHg 67%
    23:00 +27°C° 0 mm 2 m/S 760 mmHg 69%

    19 August, Samstag

    Zeit Temperatur Niederschläge Wind Luftdruck Luftfeuchtigkeit
    00:00 +27°C° 0 mm 2 m/S 760 mmHg 71%
    01:00 +27°C° 0 mm 2 m/S 760 mmHg 73%
    02:00 +26°C° 0 mm 1 m/S 760 mmHg 75%
    03:00 +26°C° 0 mm 1 m/S 760 mmHg 76%
    04:00 +25°C° 0 mm 1 m/S 760 mmHg 78%
    05:00 +25°C° 0 mm 2 m/S 760 mmHg 80%
    06:00 +24°C° 0 mm 2 m/S 760 mmHg 82%
    07:00 +27°C° 0 mm 2 m/S 760 mmHg 68%
    08:00 +29°C° 0 mm 3 m/S 761 mmHg 53%
    09:00 +31°C° 0 mm 3 m/S 761 mmHg 39%
    10:00 +34°C° 0 mm 4 m/S 761 mmHg 32%
    11:00 +36°C° 0 mm 5 m/S 760 mmHg 26%
    12:00 +40°C° 0 mm 5 m/S 760 mmHg 19%
    13:00 +40°C° 0 mm 5 m/S 759 mmHg 19%
    14:00 +40°C° 0 mm 5 m/S 758 mmHg 20%
    15:00 +41°C° 0 mm 5 m/S 758 mmHg 20%
    16:00 +38°C° 0 mm 4 m/S 758 mmHg 25%
    17:00 +36°C° 0 mm 4 m/S 758 mmHg 29%
    18:00 +35°C° 0 mm 4 m/S 758 mmHg 33%
    19:00 +33°C° 0 mm 3 m/S 758 mmHg 42%
    20:00 +30°C° 0 mm 3 m/S 759 mmHg 51%
    21:00 +28°C° 0 mm 2 m/S 760 mmHg 60%
    22:00 +28°C° 0 mm 2 m/S 760 mmHg 63%
    23:00 +27°C° 0 mm 2 m/S 760 mmHg 66%

    20 August, Sonntag

    Zeit Temperatur Niederschläge Wind Luftdruck Luftfeuchtigkeit
    00:00 +27°C° 0 mm 2 m/S 760 mmHg 69%
    01:00 +27°C° 0 mm 2 m/S 760 mmHg 71%
    02:00 +26°C° 0 mm 2 m/S 760 mmHg 73%
    03:00 +26°C° 0 mm 2 m/S 759 mmHg 75%
    04:00 +25°C° 0 mm 2 m/S 760 mmHg 73%
    05:00 +25°C° 0 mm 3 m/S 760 mmHg 72%
    06:00 +24°C° 0 mm 3 m/S 760 mmHg 70%
    07:00 +26°C° 0 mm 4 m/S 761 mmHg 58%
    08:00 +29°C° 0 mm 5 m/S 761 mmHg 45%
    09:00 +32°C° 0 mm 6 m/S 761 mmHg 32%
    10:00 +34°C° 0 mm 6 m/S 761 mmHg 28%
    11:00 +36°C° 0 mm 6 m/S 760 mmHg 24%
    12:00 +39°C° 0 mm 6 m/S 760 mmHg 21%
    13:00 +39°C° 0 mm 5 m/S 759 mmHg 20%
    14:00 +40°C° 0 mm 5 m/S 758 mmHg 19%
    15:00 +40°C° 0 mm 4 m/S 757 mmHg 19%
    16:00 +38°C° 0 mm 4 m/S 757 mmHg 22%
    17:00 +36°C° 0 mm 4 m/S 757 mmHg 25%
    18:00 +35°C° 0 mm 3 m/S 757 mmHg 28%
    19:00 +33°C° 0 mm 3 m/S 758 mmHg 36%
    20:00 +30°C° 0 mm 3 m/S 759 mmHg 44%
    21:00 +28°C° 0 mm 3 m/S 759 mmHg 52%
    22:00 +27°C° 0 mm 2 m/S 759 mmHg 58%
    23:00 +27°C° 0 mm 2 m/S 760 mmHg 64%

    21 August, Montag

    Zeit Temperatur Niederschläge Wind Luftdruck Luftfeuchtigkeit
    00:00 +26°C° 0 mm 2 m/S 760 mmHg 69%
    01:00 +26°C° 0,1 mm 2 m/S 760 mmHg 71%
    02:00 +26°C° 0,1 mm 2 m/S 759 mmHg 73%
    03:00 +25°C° 0,1 mm 2 m/S 759 mmHg 75%
    04:00 +25°C° 0,1 mm 2 m/S 759 mmHg 78%
    05:00 +25°C° 0,1 mm 3 m/S 759 mmHg 80%
    06:00 +24°C° 0,1 mm 3 m/S 760 mmHg 83%
    07:00 +26°C° 0 mm 4 m/S 760 mmHg 72%
    08:00 +28°C° 0 mm 4 m/S 760 mmHg 61%
    09:00 +30°C° 0 mm 5 m/S 761 mmHg 51%
    10:00 +33°C° 0 mm 5 m/S 760 mmHg 41%
    11:00 +35°C° 0 mm 5 m/S 759 mmHg 32%
    12:00 +37°C° 0 mm 5 m/S 759 mmHg 23%
    13:00 +39°C° 0 mm 5 m/S 758 mmHg 22%
    14:00 +39°C° 0 mm 5 m/S 757 mmHg 20%
    15:00 +40°C° 0 mm 5 m/S 756 mmHg 19%
    16:00 +37°C° 0 mm 5 m/S 757 mmHg 23%
    17:00 +35°C° 0 mm 5 m/S 757 mmHg 27%
    18:00 +34°C° 0 mm 5 m/S 757 mmHg 31%
    19:00 +32°C° 0 mm 4 m/S 758 mmHg 42%
    20:00 +29°C° 0 mm 4 m/S 758 mmHg 52%
    21:00 +28°C° 0 mm 4 m/S 759 mmHg 62%
    22:00 +27°C° 0 mm 3 m/S 759 mmHg 65%
    23:00 +27°C° 0 mm 2 m/S 759 mmHg 67%
    Mehr zeigen